Wetbulb
71.51 75.03 78.40 77.97 77.17 77.00 76.82 76.53 76.36 75.87 74.97 74.51 74.00 73.84 74.20 73.67 73.36 73.27 73.30 74.05 74.35 74.82 74.22 73.39 72.26 72.09 71.49 71.85 72.73 73.08 72.41 71.77 71.17 70.06 69.21 69.34 70.22 70.96 71.74 71.86 71.51 69.39 72.11
73.38 76.22 78.32 78.05 77.30 76.42 76.18 75.96 76.07 75.52 75.05 74.50 74.15 74.21 73.97 73.32 73.01 72.95 73.07 73.31 74.27 74.68 74.12 73.10 72.28 71.70 71.46 71.93 72.47 72.96 71.91 70.72 69.52 69.64 69.12 68.52 69.82 69.37 70.23 70.99 70.82 68.69 71.74
74.42 76.06 76.87 77.91 77.52 76.56 75.94 75.84 75.93 75.44 74.93 74.49 74.72 74.53 74.38 73.95 73.43 72.85 72.66 73.09 74.24 74.37 73.72 72.75 72.03 71.85 71.72 71.89 72.43 72.44 71.26 70.12 69.05 68.73 68.43 64.77 67.02 70.65 69.69 69.76 70.37 70.65 71.13
74.67 75.61 76.03 77.82 77.50 77.12 76.30 75.89 75.38 75.33 75.07 74.55 75.03 74.91 75.16 74.45 73.69 72.82 72.65 73.36 74.17 74.11 73.22 72.29 71.81 71.55 71.58 71.67 71.82 72.27 70.32 69.64 68.73 68.30 64.85 64.56 65.61 70.93 70.87 70.44 70.98 70.93 70.38
74.14 74.96 75.75 77.67 77.40 77.08 76.53 75.56 74.92 74.89 75.58 74.45 75.33 75.44 74.95 74.85 73.97 73.12 72.84 73.40 73.96 73.56 72.93 72.12 71.53 71.16 70.87 71.04 71.34 71.55 69.90 68.76 68.34 66.35 64.66 65.83 65.01 69.12 70.41 69.99 69.27 69.57 70.00
73.33 74.24 76.40 77.53 77.34 76.89 75.97 75.35 75.38 75.03 75.73 74.89 74.73 75.44 74.87 74.71 74.27 73.49 72.70 73.18 73.71 73.45 72.82 71.93 71.36 70.80 70.30 70.50 70.94 71.06 69.71 67.99 66.80 64.33 64.95 66.17 66.42 69.18 69.98 69.02 69.99 69.62 69.47
72.37 74.08 75.77 77.49 77.21 76.75 76.20 75.52 75.64 75.05 75.92 75.09 75.01 75.45 75.07 74.72 74.64 73.82 72.81 72.87 73.16 73.28 72.85 72.09 71.30 70.41 69.74 69.95 70.85 71.35 69.05 67.78 63.88 64.31 64.72 65.05 65.39 69.89 70.00 69.84 69.04 69.30 68.93
71.31 73.75 75.34 77.09 77.27 77.26 76.32 76.05 75.50 75.12 75.61 75.42 75.51 75.20 74.77 74.65 74.72 74.52 73.49 72.75 72.89 72.71 73.01 72.26 71.50 70.55 69.58 69.42 70.26 70.26 68.89 67.51 65.56 64.76 64.68 64.61 69.85 69.70 69.51 69.13 68.85 69.40 68.83
72.37 73.67 74.59 75.60 76.38 76.80 76.30 76.21 76.36 76.07 75.90 75.79 74.96 74.27 74.55 74.72 74.55 74.64 74.07 73.17 72.70 72.82 72.74 72.58 71.81 70.88 69.90 69.23 69.38 70.28 68.57 67.31 63.45 64.59 65.90 64.83 69.99 68.76 69.01 68.27 68.85 68.47 68.91
72.91 73.49 73.56 74.54 75.01 74.54 74.17 75.76 76.11 76.21 75.95 75.97 75.07 74.27 74.35 74.70 74.90 74.28 73.93 73.58 72.69 72.92 72.33 72.05 72.35 71.50 70.47 69.83 69.03 69.95 68.84 67.21 63.59 64.89 65.07 66.19 68.33 67.90 68.24 68.29 68.32 67.52 68.32
71.76 72.51 73.48 73.51 73.77 73.33 72.84 74.26 75.54 75.87 75.96 75.41 74.56 74.44 73.79 71.31 71.74 72.66 73.06 73.25 73.32 72.71 72.81 72.08 71.78 71.90 71.33 70.73 70.15 70.22 68.34 63.00 63.16 64.60 65.10 69.48 68.18 68.59 67.91 67.94 67.63 67.50 67.24
68.49 70.62 71.96 72.19 72.21 71.90 73.03 72.59 73.53 73.25 73.27 72.69 72.38 71.24 70.83 69.95 69.83 71.95 72.39 73.39 73.53 73.12 72.87 72.26 71.71 71.77 70.67 67.63 66.56 68.64 65.05 63.61 63.28 64.48 65.43 69.44 68.17 68.45 67.77 67.42 66.91 66.75 66.50
64.44 66.82 70.62 70.70 70.81 70.35 70.96 71.46 72.22 71.84 71.58 71.70 71.07 70.11 69.44 69.89 68.50 69.29 69.77 71.14 70.51 72.07 69.69 70.46 69.49 68.62 67.55 67.14 66.61 66.85 64.39 61.78 63.75 64.49 67.10 69.21 68.40 68.05 67.74 67.11 66.67 66.13 66.24
54.05 57.28 67.69 69.15 69.57 68.92 68.99 69.77 70.13 70.14 70.25 70.12 70.21 69.37 68.21 67.66 65.49 65.58 69.08 69.04 68.73 68.72 67.59 67.67 66.54 65.96 65.82 65.75 64.77 65.08 62.31 63.67 64.37 64.52 66.06 68.88 68.48 67.69 67.57 66.96 66.24 66.16 65.86
55.24 56.86 58.58 67.96 66.51 67.51 66.89 68.40 68.89 69.20 69.39 68.94 68.37 68.71 67.68 66.22 65.11 65.89 67.65 68.19 67.62 66.78 67.17 66.17 65.91 65.12 63.86 62.72 62.42 65.19 62.53 63.45 63.70 64.31 64.37 68.46 68.65 67.48 67.19 66.78 66.18 65.78 65.81
56.70 57.77 59.38 61.20 62.78 67.34 66.72 67.87 68.52 68.79 68.67 68.20 67.47 67.70 67.40 67.09 66.10 66.78 67.99 67.61 67.21 67.24 66.62 66.11 65.54 64.25 63.26 62.49 61.74 64.14 63.11 63.31 63.83 64.00 64.35 66.04 67.86 67.56 66.98 66.77 66.11 65.48 65.24
56.18 58.17 58.85 60.58 61.02 60.29 65.08 67.94 67.59 67.24 67.88 67.63 67.89 67.83 68.25 67.85 67.46 67.58 67.69 67.41 67.21 67.38 65.90 65.50 64.31 63.34 62.74 63.49 63.56 65.42 63.60 62.63 63.00 62.69 64.35 64.33 64.84 66.67 67.09 66.38 65.80 65.23 64.88
55.93 57.18 58.84 60.32 59.65 59.74 59.93 60.55 67.64 68.51 69.05 68.58 68.38 67.73 68.68 68.37 67.37 66.80 66.13 66.35 66.58 65.69 65.91 65.06 63.46 62.17 61.94 62.48 64.10 64.40 62.85 63.72 62.04 62.49 64.11 64.26 62.80 63.19 65.05 66.40 65.73 65.31 64.68
55.49 55.59 56.90 58.32 58.68 59.12 59.31 59.34 60.05 64.96 64.00 65.33 67.49 67.70 67.91 68.51 67.70 66.38 65.12 65.64 66.06 65.22 64.81 64.45 63.45 62.62 61.94 62.46 64.01 62.27 61.68 62.47 62.76 63.23 62.68 62.69 62.31 61.90 61.61 65.22 65.32 65.51 64.34
53.48 53.23 53.93 55.34 56.35 58.76 58.60 58.89 58.82 58.71 62.38 62.27 65.57 66.63 67.00 67.86 67.56 66.07 66.07 66.26 65.52 64.30 63.01 63.87 63.66 62.99 62.35 62.90 61.99 60.15 60.17 60.82 60.87 61.86 61.69 62.36 62.50 61.65 61.38 62.62 61.11 62.14 64.93
49.60 49.83 50.73 52.62 53.61 56.75 58.00 57.87 57.47 57.13 59.59 60.87 65.18 65.81 66.58 66.21 64.19 64.90 64.96 65.11 64.62 63.80 63.63 63.88 62.06 62.20 59.98 61.36 58.93 58.04 58.57 57.36 58.05 59.89 60.55 61.84 62.32 62.83 61.04 60.60 61.58 60.65 61.22
47.11 48.38 48.96 51.26 52.62 54.34 58.33 58.23 58.49 58.72 59.16 59.55 62.21 64.86 64.82 62.88 64.00 64.60 64.73 63.99 64.58 62.78 62.07 62.66 61.18 59.38 59.02 59.65 56.95 56.33 54.14 55.31 57.29 58.94 60.41 60.98 60.61 62.35 60.50 61.87 61.49 61.43 60.89
42.37 44.04 47.38 49.33 50.87 52.20 54.76 58.26 58.25 59.30 57.28 58.27 61.52 61.68 60.51 62.47 61.65 62.77 65.18 64.26 64.38 64.06 62.57 62.76 61.31 59.25 57.53 57.29 56.91 54.46 50.82 50.96 56.52 57.84 59.35 59.86 59.89 60.37 60.49 60.62 59.75 60.69 60.00
42.02 42.37 43.34 45.57 49.12 50.70 52.03 54.52 56.61 56.93 55.75 57.07 58.71 61.57 60.75 62.14 61.57 61.57 61.13 60.23 60.93 62.88 63.43 62.14 61.41 59.11 58.32 56.50 56.89 56.85 54.18 54.84 53.38 52.30 57.20 58.39 57.57 57.09 57.50 59.12 59.64 59.85 59.64
44.27 44.13 42.87 42.96 45.46 47.89 50.39 51.95 55.46 57.16 57.47 58.15 59.51 61.24 60.40 60.50 60.19 60.57 60.87 61.12 62.00 63.77 63.07 61.43 59.74 59.22 58.36 57.39 56.19 54.60 53.01 52.81 52.75 50.87 52.69 53.96 54.46 54.50 54.59 54.81 55.55 56.57 57.24
45.62 45.78 44.99 42.54 43.37 44.67 48.44 50.72 53.24 55.54 57.51 57.88 58.65 60.63 60.52 59.13 58.93 60.44 62.24 63.50 64.22 63.87 62.80 61.68 60.38 59.52 58.93 57.78 56.73 55.74 54.06 53.09 52.24 51.48 51.72 54.02 51.34 51.49 52.11 52.34 52.28 53.44 54.89
MSLP
1010.38 1010.07 1010.19 1010.36 1010.58 1010.68 1010.84 1011.07 1011.19 1011.30 1011.51 1011.67 1011.85 1012.08 1012.22 1012.24 1012.22 1012.24 1012.23 1012.21 1012.16 1012.15 1012.14 1012.19 1012.22 1012.17 1012.06 1012.13 1012.09 1011.89 1011.76 1011.69 1011.66 1011.67 1011.53 1011.18 1010.88 1010.78 1010.53 1010.29 1009.96 1009.57 1009.19
1009.53 1009.82 1009.96 1010.27 1010.51 1010.80 1010.88 1011.02 1011.24 1011.24 1011.38 1011.54 1011.86 1012.02 1012.20 1012.33 1012.47 1012.43 1012.34 1012.30 1012.26 1012.33 1012.31 1012.33 1012.46 1012.35 1012.27 1012.30 1012.29 1012.15 1012.06 1012.04 1011.94 1011.87 1011.72 1011.47 1011.11 1010.94 1010.82 1010.55 1010.07 1009.65 1009.38
1009.77 1009.90 1010.21 1010.61 1010.77 1010.99 1011.16 1011.39 1011.54 1011.50 1011.53 1011.54 1011.72 1011.86 1012.04 1012.15 1012.40 1012.53 1012.62 1012.56 1012.49 1012.51 1012.56 1012.61 1012.64 1012.62 1012.55 1012.56 1012.56 1012.36 1012.28 1012.28 1012.15 1012.05 1011.83 1011.71 1011.36 1011.09 1010.99 1010.76 1010.40 1009.93 1009.64
1009.60 1009.96 1010.25 1010.56 1010.86 1011.08 1011.20 1011.44 1011.57 1011.68 1011.75 1011.85 1011.91 1011.92 1012.00 1012.03 1012.21 1012.36 1012.51 1012.68 1012.65 1012.69 1012.83 1012.86 1012.89 1012.80 1012.75 1012.77 1012.71 1012.56 1012.54 1012.58 1012.53 1012.42 1012.29 1012.07 1011.69 1011.15 1011.03 1010.83 1010.56 1010.30 1010.04
1009.41 1009.57 1009.81 1010.04 1010.30 1010.56 1010.68 1010.97 1011.19 1011.49 1011.69 1011.92 1012.11 1012.23 1012.31 1012.30 1012.36 1012.41 1012.57 1012.67 1012.71 1012.75 1012.86 1012.92 1013.04 1012.98 1012.96 1012.90 1012.76 1012.71 1012.73 1012.73 1012.85 1012.72 1012.62 1012.33 1011.90 1011.42 1011.20 1011.07 1010.80 1010.56 1010.30
1009.01 1009.05 1009.31 1009.58 1009.98 1010.37 1010.68 1010.91 1011.19 1011.42 1011.45 1011.69 1011.85 1012.17 1012.45 1012.62 1012.64 1012.72 1012.75 1012.82 1012.90 1012.88 1012.99 1013.12 1013.19 1013.17 1013.19 1013.04 1012.93 1012.79 1012.87 1012.91 1013.00 1012.99 1012.89 1012.54 1012.09 1011.62 1011.46 1011.18 1010.99 1010.78 1010.48
1009.11 1009.24 1009.43 1009.61 1009.89 1010.10 1010.37 1010.65 1010.80 1011.06 1011.32 1011.64 1011.87 1011.98 1012.26 1012.57 1012.74 1012.93 1012.88 1012.89 1013.01 1012.97 1013.00 1013.21 1013.41 1013.34 1013.27 1013.20 1013.13 1012.87 1013.14 1013.24 1013.22 1013.08 1012.84 1012.69 1012.33 1011.89 1011.67 1011.43 1011.35 1011.00 1010.71
1008.87 1008.97 1009.16 1009.39 1009.70 1010.01 1010.41 1010.68 1010.87 1011.10 1011.26 1011.43 1011.55 1011.72 1011.95 1012.19 1012.23 1012.53 1012.82 1013.14 1013.16 1013.14 1013.17 1013.30 1013.20 1013.31 1013.28 1013.29 1013.24 1013.19 1013.23 1013.35 1013.25 1013.16 1013.01 1012.88 1012.47 1012.16 1012.03 1011.85 1011.58 1011.23 1011.04
1008.77 1008.99 1009.17 1009.43 1009.59 1009.82 1010.09 1010.34 1010.59 1010.86 1011.09 1011.33 1011.57 1011.76 1011.95 1012.02 1012.18 1012.37 1012.50 1012.77 1013.03 1013.24 1013.36 1013.32 1013.26 1013.23 1013.16 1013.23 1013.33 1013.22 1013.34 1013.54 1013.54 1013.21 1013.03 1012.92 1012.63 1012.55 1012.31 1012.27 1011.82 1011.55 1011.22
1008.71 1008.90 1009.14 1009.21 1009.42 1009.66 1009.97 1010.24 1010.46 1010.62 1010.75 1010.89 1011.27 1011.62 1011.73 1011.89 1012.03 1012.23 1012.56 1012.74 1012.85 1013.12 1013.41 1013.58 1013.59 1013.45 1013.31 1013.18 1013.24 1013.33 1013.60 1013.58 1013.61 1013.45 1013.29 1013.10 1012.81 1012.88 1012.68 1012.42 1012.12 1012.00 1011.70
1008.93 1008.84 1008.91 1009.08 1009.09 1009.35 1009.62 1009.81 1010.04 1010.23 1010.51 1010.79 1011.04 1011.32 1011.59 1011.86 1012.15 1012.27 1012.48 1012.66 1012.76 1012.81 1012.98 1013.29 1013.50 1013.44 1013.42 1013.21 1013.22 1013.47 1013.58 1013.72 1013.84 1013.65 1013.34 1013.14 1013.09 1013.06 1012.99 1012.71 1012.54 1012.44 1012.16
1009.04 1008.98 1008.95 1009.11 1009.24 1009.39 1009.48 1009.60 1009.73 1009.93 1010.24 1010.47 1010.62 1010.78 1011.20 1011.62 1011.78 1011.91 1012.04 1012.29 1012.43 1012.50 1012.76 1013.01 1013.02 1013.27 1013.40 1013.50 1013.40 1013.59 1013.63 1013.82 1013.87 1013.73 1013.29 1013.14 1013.20 1013.27 1013.27 1013.09 1012.94 1012.76 1012.52
1009.12 1009.18 1009.08 1008.87 1009.06 1009.32 1009.40 1009.55 1009.65 1009.76 1009.89 1010.03 1010.17 1010.48 1010.81 1011.11 1011.51 1011.75 1011.83 1011.99 1012.20 1012.38 1012.50 1012.61 1012.94 1013.10 1013.32 1013.36 1013.28 1013.69 1013.64 1013.92 1014.02 1013.86 1013.37 1013.09 1013.21 1013.37 1013.43 1013.33 1013.20 1013.12 1012.95
1008.95 1008.86 1008.53 1009.05 1008.91 1008.88 1009.01 1009.29 1009.44 1009.86 1009.75 1009.81 1009.83 1010.18 1010.52 1010.62 1010.92 1011.32 1011.50 1011.54 1011.92 1012.11 1012.42 1012.38 1012.66 1013.06 1013.19 1013.27 1013.33 1013.70 1013.47 1013.56 1013.91 1014.09 1013.65 1013.06 1013.21 1013.47 1013.47 1013.50 1013.55 1013.44 1013.37
1009.45 1009.24 1009.08 1008.82 1009.22 1009.34 1009.05 1009.16 1009.34 1009.41 1009.43 1009.42 1009.85 1009.96 1010.25 1010.46 1010.66 1010.77 1010.96 1011.08 1011.51 1011.98 1012.21 1012.48 1012.65 1012.92 1013.22 1013.21 1013.45 1013.33 1013.49 1013.40 1013.76 1014.05 1013.95 1013.45 1013.36 1013.58 1013.61 1013.73 1013.77 1013.69 1013.60
1009.92 1009.75 1009.39 1009.38 1009.28 1009.24 1009.50 1009.19 1009.07 1009.22 1009.14 1009.38 1009.55 1009.30 1009.36 1009.94 1009.91 1010.19 1010.30 1010.44 1010.88 1011.34 1011.75 1012.14 1012.60 1012.84 1013.14 1013.34 1013.44 1013.27 1013.30 1013.29 1013.54 1013.93 1014.02 1013.71 1013.72 1013.70 1013.74 1013.80 1013.91 1014.01 1013.91
1010.51 1010.23 1009.82 1009.57 1009.62 1009.67 1009.65 1009.35 1009.21 1009.22 1009.35 1009.63 1009.38 1009.38 1008.93 1009.12 1009.01 1009.42 1009.70 1010.10 1010.15 1010.86 1011.21 1011.52 1012.12 1012.49 1013.04 1013.16 1013.31 1012.96 1013.12 1013.41 1013.74 1014.02 1013.99 1013.94 1014.10 1013.95 1013.92 1013.99 1014.07 1014.23 1014.19
1010.82 1010.74 1010.41 1010.07 1009.82 1009.67 1009.61 1009.50 1009.41 1009.14 1008.84 1009.07 1009.03 1008.66 1008.51 1008.56 1008.50 1008.76 1009.45 1009.70 1009.87 1010.70 1011.12 1011.40 1011.89 1012.52 1012.94 1013.17 1013.37 1013.07 1013.22 1013.45 1013.77 1014.11 1014.02 1014.01 1014.49 1014.40 1014.34 1014.26 1014.29 1014.41 1014.34
1010.81 1010.81 1010.73 1010.46 1010.27 1010.11 1009.59 1009.33 1009.16 1009.13 1009.52 1009.72 1008.79 1008.45 1007.93 1008.16 1008.14 1008.49 1009.33 1009.58 1009.50 1010.11 1010.74 1011.23 1011.66 1012.08 1012.73 1013.15 1013.31 1013.15 1013.30 1013.67 1014.01 1014.15 1014.11 1014.31 1014.63 1014.79 1014.95 1014.58 1014.64 1014.61 1014.58
1011.15 1011.05 1011.07 1011.06 1010.46 1010.31 1009.97 1009.50 1009.02 1008.86 1008.79 1008.78 1008.56 1008.05 1007.54 1007.34 1007.42 1008.13 1008.86 1009.01 1009.49 1010.02 1010.56 1011.03 1011.30 1012.02 1012.54 1012.99 1013.32 1014.08 1013.92 1014.07 1014.34 1014.43 1014.51 1014.44 1014.77 1015.09 1015.12 1014.92 1015.03 1014.92 1014.82
1011.86 1011.68 1011.31 1010.93 1011.06 1010.63 1010.15 1009.84 1009.33 1008.91 1008.38 1007.90 1007.50 1007.29 1007.32 1007.09 1007.61 1008.18 1008.58 1009.12 1009.19 1010.00 1010.17 1010.61 1011.27 1011.80 1012.63 1013.08 1013.70 1014.60 1014.84 1015.19 1014.89 1014.85 1014.77 1014.65 1015.00 1015.11 1015.29 1015.34 1015.30 1015.27 1015.25
1012.38 1011.95 1011.57 1011.50 1011.40 1011.14 1010.68 1010.18 1009.79 1009.21 1008.46 1007.81 1007.09 1006.99 1006.89 1007.26 1007.20 1007.68 1008.20 1008.90 1009.11 1010.20 1010.56 1010.50 1010.73 1011.36 1012.33 1013.05 1013.40 1013.97 1015.01 1015.38 1015.23 1015.29 1015.05 1015.17 1015.34 1015.19 1015.57 1015.53 1015.69 1015.61 1015.66
1012.81 1012.54 1012.19 1012.00 1011.56 1011.29 1011.06 1010.60 1009.81 1008.87 1008.57 1007.82 1006.97 1006.62 1006.83 1006.97 1006.82 1007.27 1007.84 1008.17 1008.31 1009.44 1010.42 1010.48 1009.91 1010.34 1011.59 1012.64 1012.98 1013.12 1014.40 1015.05 1015.29 1015.62 1015.75 1015.83 1015.88 1015.90 1016.08 1016.11 1016.11 1015.95 1016.03
1013.24 1012.84 1012.51 1012.12 1011.68 1011.30 1011.09 1010.77 1010.30 1009.34 1008.53 1007.97 1007.43 1006.75 1006.69 1006.72 1006.77 1006.76 1007.17 1007.84 1007.82 1008.12 1009.84 1010.17 1009.70 1010.36 1011.26 1012.59 1012.90 1012.81 1013.19 1013.83 1015.03 1015.96 1016.15 1016.47 1016.49 1016.68 1016.87 1016.73 1016.58 1016.47 1016.40
1013.64 1013.47 1013.12 1012.60 1011.98 1011.64 1010.99 1010.80 1010.28 1009.48 1008.81 1007.64 1006.92 1006.18 1006.13 1006.41 1006.56 1006.41 1006.83 1007.41 1007.47 1008.46 1009.10 1009.57 1009.75 1010.47 1010.78 1011.65 1012.45 1013.35 1013.60 1014.06 1014.36 1015.26 1016.09 1016.82 1017.21 1017.50 1017.67 1017.62 1017.59 1017.29 1017.06
1014.02 1013.75 1013.66 1012.97 1012.49 1011.43 1010.90 1010.73 1010.30 1009.30 1008.38 1007.37 1006.59 1006.01 1005.98 1006.17 1006.39 1006.50 1006.82 1007.06 1007.71 1007.85 1008.54 1009.04 1009.45 1010.19 1010.67 1011.05 1012.19 1012.94 1013.36 1013.87 1014.20 1014.81 1015.89 1016.85 1017.45 1018.27 1018.30 1018.36 1018.36 1018.20 1017.72
Wind_Speed
4 8 15 15 14 13 13 11 12 12 12 11 10 9 8 8 8 9 9 9 8 10 12 11 10 10 9 11 12 13 15 16 8 12 12 14 13 14 16 16 15 10 18
11 10 16 15 15 13 13 11 13 14 12 12 10 10 9 8 7 8 8 7 8 11 11 11 9 9 9 10 11 12 13 14 12 12 12 11 11 14 15 15 15 13 17
11 10 11 13 12 12 11 10 11 11 11 12 11 11 11 10 8 7 6 6 8 11 11 10 9 8 9 9 10 12 12 13 14 15 15 5 5 14 14 13 15 15 17
12 9 9 14 12 11 11 11 9 9 10 10 9 11 12 11 10 9 8 6 8 10 10 9 8 7 8 8 9 10 11 12 14 14 6 6 6 14 14 15 16 18 18
12 12 12 16 15 15 14 13 12 12 12 10 8 10 10 10 10 10 9 8 8 9 10 9 7 6 6 7 8 10 12 11 12 9 6 5 5 14 18 17 15 15 17
13 13 16 18 17 15 14 13 12 12 13 12 11 10 8 8 8 8 8 7 8 10 10 8 6 5 4 6 8 7 13 12 9 5 5 7 5 14 15 17 16 17 19
10 9 12 17 16 16 15 15 14 13 14 12 11 10 10 9 9 8 7 8 6 9 10 9 6 4 2 5 10 16 13 11 4 5 5 5 6 15 16 16 17 17 18
12 11 12 17 18 16 15 13 13 12 13 12 12 12 11 10 11 11 10 7 7 6 10 9 8 5 1 3 7 10 12 9 6 5 5 5 10 15 16 17 17 18 18
11 11 10 11 14 17 16 15 14 14 14 13 12 11 10 9 10 11 12 11 9 7 7 9 8 7 4 2 4 9 11 8 4 3 4 3 11 13 15 15 15 19 19
10 10 10 10 11 10 9 14 13 13 13 14 12 10 9 8 10 11 11 11 10 9 8 7 8 7 6 5 1 7 12 9 3 4 3 3 12 11 13 13 17 17 17
7 10 10 11 11 10 9 9 14 14 13 12 10 10 8 4 4 5 7 11 12 12 12 10 8 9 8 7 6 7 9 3 2 1 2 9 11 12 13 14 15 16 16
7 9 9 9 10 9 8 8 9 8 6 6 7 7 5 5 5 7 8 13 14 14 13 12 11 10 7 3 3 3 3 4 2 2 2 10 10 11 12 13 14 14 17
3 2 8 10 9 9 8 5 4 4 5 6 8 6 5 5 4 4 3 4 5 11 4 7 5 4 4 4 3 2 3 4 2 2 3 11 11 10 11 12 12 12 16
6 7 5 7 8 9 5 6 6 5 5 6 7 8 6 5 5 5 5 6 5 4 5 4 3 3 4 5 5 1 6 6 3 1 2 11 11 9 10 10 11 13 13
8 8 9 2 2 4 5 5 5 7 7 7 6 8 6 5 5 5 6 5 5 4 4 4 4 4 4 4 3 5 6 6 5 3 2 9 10 9 10 9 10 12 13
7 8 7 9 9 2 6 7 6 6 6 6 6 8 9 7 6 7 7 8 6 6 5 5 5 4 3 2 3 0 7 8 7 5 3 5 9 9 9 9 9 10 11
6 7 10 9 8 8 8 5 4 2 3 3 5 8 10 10 9 9 8 6 6 6 6 5 4 3 4 3 3 1 4 5 5 4 4 3 3 7 7 8 9 9 9
6 7 9 9 9 9 6 5 4 4 2 6 8 6 8 10 10 7 3 5 5 4 5 5 4 3 3 3 2 2 1 4 5 4 4 4 2 2 2 7 7 9 9
7 7 7 8 9 9 9 5 5 4 3 9 6 7 7 8 7 5 4 5 6 6 6 6 3 4 3 2 1 2 3 3 4 4 5 5 4 2 1 5 6 5 7
8 8 6 5 7 9 4 5 4 4 3 5 8 7 7 7 9 6 6 6 7 6 4 5 6 4 3 4 5 4 3 4 3 3 4 3 3 2 2 2 2 1 7
7 8 9 9 7 5 4 7 4 4 6 6 6 9 8 6 4 3 3 4 5 7 8 8 4 7 3 3 5 2 4 3 4 3 3 3 3 4 3 2 2 1 1
8 9 9 8 8 6 4 4 3 4 5 7 6 7 6 6 6 6 6 4 6 2 1 6 5 4 3 6 3 3 3 2 4 3 3 3 4 1 1 2 3 2 2
11 11 10 9 8 7 7 5 5 6 4 4 5 4 4 6 6 6 10 7 7 4 6 9 10 8 6 3 6 6 3 3 3 3 4 4 4 4 4 3 2 3 3
11 10 11 12 10 9 7 6 5 7 10 6 7 4 6 10 9 8 10 8 11 10 11 8 6 5 6 5 2 3 3 5 4 3 2 5 7 8 7 5 5 5 5
12 13 10 10 10 10 7 6 6 7 8 7 9 9 9 7 7 8 8 8 8 6 7 9 7 5 4 4 4 2 2 3 4 4 4 3 5 6 5 6 5 5 6
13 15 15 11 11 10 8 8 8 7 10 8 9 5 3 6 4 6 6 5 9 11 11 8 7 8 6 5 4 4 4 4 4 4 4 4 4 3 5 6 7 6 5
Wind_Direction
194 168 173 168 164 157 149 146 143 140 130 121 129 126 122 111 108 101 93 79 79 93 93 87 80 74 70 71 63 51 59 61 76 52 48 44 28 30 28 24 20 18 19
147 167 165 165 162 161 154 148 145 144 139 138 149 143 134 121 111 105 106 100 100 103 98 91 84 79 72 71 62 49 60 54 55 57 44 22 25 32 26 22 16 21 17
147 153 157 161 158 161 156 149 151 147 148 155 163 157 151 139 131 120 113 103 108 106 101 92 87 79 76 68 54 50 75 61 57 50 40 15 20 38 31 24 21 18 22
148 148 149 155 160 164 164 167 166 164 167 170 175 171 164 153 144 139 136 122 121 112 104 97 91 82 79 68 54 55 75 66 59 51 27 13 6 42 43 37 27 25 23
157 160 164 165 169 174 172 177 178 183 180 178 174 170 168 163 157 149 148 142 131 129 125 115 109 92 83 73 64 73 86 73 64 46 24 358 359 39 36 35 30 25 25
165 166 170 171 175 177 180 183 185 191 175 181 176 181 180 181 173 163 156 152 163 148 135 126 118 101 76 68 61 80 106 85 72 49 23 7 6 38 41 40 38 31 31
166 170 173 175 177 180 185 191 187 190 182 184 185 178 182 192 194 178 172 172 178 155 143 139 135 121 100 68 70 93 106 96 80 63 35 12 10 48 47 42 38 34 31
171 174 179 181 182 184 188 192 193 196 189 194 188 184 188 196 197 190 177 192 194 177 158 159 154 156 177 79 88 93 123 109 92 77 43 14 49 52 47 42 38 41 37
175 170 178 186 187 184 187 189 192 208 197 200 196 195 196 200 209 206 184 188 197 191 173 171 170 175 208 208 110 93 123 118 100 88 62 20 51 47 48 46 41 42 33
172 174 178 181 182 185 186 192 196 198 201 191 191 197 197 213 211 207 203 196 196 193 191 195 198 190 212 250 190 100 130 119 106 107 77 50 56 50 54 51 48 44 40
182 187 184 187 188 186 181 187 191 196 193 187 187 192 195 192 218 219 200 209 206 201 195 198 204 211 217 242 251 125 135 126 136 112 110 80 66 65 56 55 53 48 44
211 206 200 194 194 186 194 192 196 191 181 183 190 191 183 193 199 210 208 212 212 205 203 202 203 221 230 251 272 125 157 152 167 170 131 99 82 76 64 60 57 51 51
284 245 229 196 192 188 202 190 198 190 187 198 196 188 186 198 207 213 202 209 206 218 197 195 205 210 219 242 251 158 168 147 167 205 149 115 92 89 81 71 65 60 56
38 10 208 225 199 190 193 189 190 192 202 207 205 195 196 207 194 198 207 201 193 201 199 191 190 203 224 253 270 50 164 159 168 181 199 120 112 103 93 82 73 64 64
36 14 19 32 294 279 203 204 198 207 206 206 207 209 201 202 204 193 204 193 189 198 195 203 199 194 217 262 301 189 181 160 158 181 203 128 120 113 103 95 85 77 72
42 24 11 35 22 295 264 229 208 209 211 212 222 213 193 210 197 199 190 189 186 184 182 187 207 190 202 253 221 246 195 165 164 164 193 138 135 124 119 112 97 88 77
60 28 23 16 26 21 347 291 266 201 247 260 242 233 209 206 218 206 203 195 177 182 175 164 177 167 202 183 194 341 165 154 167 168 144 121 117 123 127 125 116 99 80
79 58 22 21 18 6 352 342 301 235 161 261 244 237 221 206 207 194 185 174 163 170 185 165 159 188 213 218 196 66 136 151 148 174 170 118 145 99 116 126 131 114 102
66 62 49 16 5 356 342 340 335 293 225 254 264 244 213 218 218 187 191 220 163 163 172 177 158 146 167 217 249 346 126 128 140 151 126 133 161 142 131 149 135 124 108
41 32 31 31 13 337 333 324 325 310 255 231 239 235 214 218 212 182 197 176 161 153 155 167 161 166 172 147 99 58 48 63 125 129 130 138 148 174 159 146 102 113 122
36 28 19 17 1 339 338 347 327 315 310 290 252 246 230 220 99 138 191 184 146 173 175 176 165 169 136 131 115 111 57 61 62 77 120 102 171 187 179 161 162 103 134
12 8 12 11 351 340 326 314 289 282 281 278 271 251 216 165 161 167 157 144 118 100 319 189 171 129 119 170 135 116 141 21 47 39 62 64 38 50 179 102 78 19 45
12 1 357 343 350 342 334 309 310 329 295 284 288 287 164 169 157 165 149 142 131 170 224 215 177 157 148 173 212 134 120 171 116 24 42 58 54 45 41 24 63 59 40
359 352 351 345 340 334 331 323 309 340 324 299 289 265 180 192 191 151 154 172 176 182 211 216 170 159 127 150 67 46 63 139 145 135 93 53 51 42 29 26 35 37 24
351 339 332 332 329 312 325 321 304 328 327 302 296 279 188 197 182 167 191 199 185 184 169 183 157 155 116 134 118 137 88 73 92 132 146 113 65 32 29 27 21 20 12
351 347 337 324 321 313 328 315 301 302 322 317 306 283 197 178 172 193 193 175 200 175 181 170 158 159 146 119 128 147 152 159 157 134 109 121 113 46 37 28 19 4 359